Find Starlink 6319

NORAD ID: 56532 Int'l Des: 2023-065 Owner: SPXS Country: US Constellation: starlink operational
LEOCIRCULAR

当前视图

正在加载3D地球...

关于 Starlink 6319

正在加载描述...

即将过境

Passes for default location (London). Set your location on the main map for personalized predictions.

高度历史

Loading altitude history...

两行轨道根数

1 56532U 23065AF 26150.22313957 .00002522 00000-0 10116-3 0 9996
2 56532 43.0022 97.7738 0000901 267.1498 92.9250 15.27572916169235
Epoch: May 30, 2026 • Age: 13 hours

当前状态

高度 483.9 km
速度 7.62 km/s
星下点 -6.99°S, 112.78°E
发射日期 May 14, 2023
运行时间 3 years
类型 internet

技术详情

分类 Payload
质量 305.00 kg
干质量 290.00 kg
总质量 305.00 kg
长度 0.20 m
直径 2.80 m
跨度 9.00 m
形状 Box + pan
制造商 SPXS
平台类型 Starlink
阶段状态 In Orbit
所有者/国家 SPXS/US

Most Searched